• In Deutschland
  • Länderverzeichnis
  • Für 7 Tage
  • Wassertemperatur
  • Satellitenkarten
  • Wetterkarte
  • Widgets
  • user-avatar
    Anmelden

    Stündliche Wetter Marsberg

    Heute, 20 August, Montag

    Zeit Temperatur Niederschläge Wind Luftdruck Luftfeuchtigkeit
    00:00 +17°C° 0 mm 2 m/S 735 mmHg 82%
    01:00 +17°C° 0 mm 2 m/S 735 mmHg 85%
    02:00 +17°C° 0 mm 2 m/S 735 mmHg 87%
    03:00 +17°C° 0 mm 2 m/S 735 mmHg 88%
    04:00 +17°C° 0 mm 2 m/S 735 mmHg 90%
    05:00 +18°C° 0 mm 2 m/S 735 mmHg 89%
    06:00 +18°C° 0 mm 3 m/S 735 mmHg 88%
    07:00 +19°C° 0 mm 3 m/S 735 mmHg 86%
    08:00 +19°C° 0,1 mm 3 m/S 735 mmHg 82%
    09:00 +20°C° 0,1 mm 3 m/S 736 mmHg 78%
    10:00 +21°C° 0,1 mm 3 m/S 736 mmHg 74%
    11:00 +21°C° 0,1 mm 3 m/S 736 mmHg 72%
    12:00 +22°C° 0,1 mm 3 m/S 736 mmHg 70%
    13:00 +22°C° 0,1 mm 3 m/S 736 mmHg 67%
    14:00 +22°C° 0,1 mm 3 m/S 736 mmHg 68%
    15:00 +22°C° 0,1 mm 3 m/S 736 mmHg 69%
    16:00 +22°C° 0,1 mm 3 m/S 736 mmHg 69%
    17:00 +21°C° 0,1 mm 3 m/S 736 mmHg 74%
    18:00 +20°C° 0,1 mm 2 m/S 736 mmHg 78%
    19:00 +20°C° 0,1 mm 2 m/S 736 mmHg 82%
    20:00 +19°C° 0 mm 2 m/S 736 mmHg 85%
    21:00 +19°C° 0 mm 1 m/S 737 mmHg 89%
    22:00 +18°C° 0 mm 1 m/S 737 mmHg 92%
    23:00 +16°C° 0 mm 1 m/S 737 mmHg 93%

    Morgen, 21 August, Dienstag

    Zeit Temperatur Niederschläge Wind Luftdruck Luftfeuchtigkeit
    00:00 +16°C° 0 mm 1 m/S 737 mmHg 94%
    01:00 +14°C° 0 mm 0 m/S 737 mmHg 95%
    02:00 +14°C° 0 mm 0 m/S 737 mmHg 95%
    03:00 +14°C° 0 mm 0 m/S 737 mmHg 95%
    04:00 +13°C° 0 mm 0 m/S 737 mmHg 95%
    05:00 +14°C° 0 mm 0 m/S 737 mmHg 93%
    06:00 +15°C° 0 mm 1 m/S 737 mmHg 91%
    07:00 +16°C° 0 mm 1 m/S 738 mmHg 89%
    08:00 +18°C° 0 mm 1 m/S 738 mmHg 83%
    09:00 +20°C° 0 mm 1 m/S 738 mmHg 76%
    10:00 +21°C° 0 mm 1 m/S 738 mmHg 69%
    11:00 +23°C° 0 mm 1 m/S 738 mmHg 64%
    12:00 +24°C° 0 mm 1 m/S 738 mmHg 59%
    13:00 +26°C° 0 mm 1 m/S 738 mmHg 53%
    14:00 +25°C° 0,1 mm 1 m/S 737 mmHg 55%
    15:00 +23°C° 0,1 mm 0 m/S 737 mmHg 56%
    16:00 +23°C° 0,1 mm 0 m/S 737 mmHg 58%
    17:00 +22°C° 0 mm 0 m/S 737 mmHg 62%
    18:00 +23°C° 0 mm 1 m/S 736 mmHg 67%
    19:00 +22°C° 0 mm 1 m/S 736 mmHg 71%
    20:00 +21°C° 0 mm 1 m/S 736 mmHg 73%
    21:00 +20°C° 0 mm 1 m/S 737 mmHg 76%
    22:00 +19°C° 0 mm 1 m/S 737 mmHg 78%
    23:00 +19°C° 0 mm 1 m/S 736 mmHg 80%

    übermorgen, 22 August, Mittwoch

    Zeit Temperatur Niederschläge Wind Luftdruck Luftfeuchtigkeit
    00:00 +18°C° 0 mm 1 m/S 736 mmHg 81%
    01:00 +18°C° 0 mm 1 m/S 736 mmHg 83%
    02:00 +18°C° 0 mm 1 m/S 736 mmHg 84%
    03:00 +16°C° 0 mm 1 m/S 736 mmHg 85%
    04:00 +16°C° 0 mm 1 m/S 736 mmHg 87%
    05:00 +18°C° 0 mm 1 m/S 736 mmHg 84%
    06:00 +19°C° 0 mm 1 m/S 736 mmHg 82%
    07:00 +19°C° 0 mm 1 m/S 736 mmHg 80%
    08:00 +21°C° 0 mm 1 m/S 736 mmHg 75%
    09:00 +22°C° 0 mm 1 m/S 736 mmHg 70%
    10:00 +23°C° 0 mm 1 m/S 736 mmHg 66%
    11:00 +24°C° 0 mm 1 m/S 735 mmHg 61%
    12:00 +25°C° 0 mm 1 m/S 735 mmHg 56%
    13:00 +26°C° 0 mm 2 m/S 735 mmHg 52%
    14:00 +27°C° 0 mm 2 m/S 735 mmHg 51%
    15:00 +27°C° 0 mm 2 m/S 734 mmHg 51%
    16:00 +27°C° 0 mm 1 m/S 734 mmHg 51%
    17:00 +26°C° 0 mm 1 m/S 734 mmHg 56%
    18:00 +25°C° 0 mm 1 m/S 734 mmHg 61%
    19:00 +21°C° 0 mm 0 m/S 734 mmHg 65%
    20:00 +20°C° 0 mm 0 m/S 734 mmHg 68%
    21:00 +19°C° 0 mm 0 m/S 734 mmHg 71%
    22:00 +18°C° 0 mm 0 m/S 734 mmHg 73%
    23:00 +18°C° 0 mm 0 m/S 734 mmHg 76%

    23 August, Donnerstag

    Zeit Temperatur Niederschläge Wind Luftdruck Luftfeuchtigkeit
    00:00 +19°C° 0 mm 1 m/S 734 mmHg 78%
    01:00 +19°C° 0 mm 1 m/S 734 mmHg 80%
    02:00 +18°C° 0 mm 1 m/S 733 mmHg 82%
    03:00 +18°C° 0 mm 1 m/S 733 mmHg 85%
    04:00 +18°C° 0 mm 1 m/S 733 mmHg 87%
    05:00 +18°C° 0 mm 1 m/S 733 mmHg 84%
    06:00 +19°C° 0 mm 1 m/S 733 mmHg 82%
    07:00 +20°C° 0 mm 1 m/S 733 mmHg 79%
    08:00 +22°C° 0 mm 1 m/S 733 mmHg 72%
    09:00 +24°C° 0 mm 1 m/S 733 mmHg 65%
    10:00 +26°C° 0 mm 2 m/S 733 mmHg 57%
    11:00 +27°C° 0 mm 2 m/S 732 mmHg 54%
    12:00 +28°C° 0 mm 2 m/S 732 mmHg 51%
    13:00 +29°C° 0 mm 3 m/S 731 mmHg 48%
    14:00 +29°C° 0 mm 3 m/S 731 mmHg 48%
    15:00 +29°C° 0 mm 3 m/S 730 mmHg 48%
    16:00 +29°C° 0 mm 2 m/S 730 mmHg 48%
    17:00 +27°C° 0,3 mm 2 m/S 730 mmHg 54%
    18:00 +26°C° 0,3 mm 2 m/S 729 mmHg 61%
    19:00 +24°C° 0,3 mm 2 m/S 729 mmHg 67%
    20:00 +23°C° 0,3 mm 2 m/S 729 mmHg 71%
    21:00 +21°C° 0,3 mm 2 m/S 729 mmHg 76%
    22:00 +20°C° 0,3 mm 2 m/S 729 mmHg 80%
    23:00 +19°C° 0 mm 2 m/S 729 mmHg 83%

    24 August, Freitag

    Zeit Temperatur Niederschläge Wind Luftdruck Luftfeuchtigkeit
    00:00 +18°C° 0 mm 2 m/S 728 mmHg 86%
    01:00 +18°C° 0 mm 1 m/S 728 mmHg 89%
    02:00 +18°C° 0 mm 1 m/S 728 mmHg 90%
    03:00 +18°C° 0 mm 1 m/S 728 mmHg 92%
    04:00 +15°C° 0 mm 0 m/S 727 mmHg 93%
    05:00 +18°C° 0,3 mm 1 m/S 727 mmHg 92%
    06:00 +18°C° 0,3 mm 1 m/S 727 mmHg 91%
    07:00 +18°C° 0,3 mm 1 m/S 727 mmHg 90%
    08:00 +17°C° 1 mm 2 m/S 727 mmHg 90%
    09:00 +17°C° 1 mm 3 m/S 727 mmHg 89%
    10:00 +17°C° 1 mm 3 m/S 727 mmHg 89%
    11:00 +16°C° 0,3 mm 3 m/S 728 mmHg 88%
    12:00 +16°C° 0,3 mm 3 m/S 728 mmHg 87%
    13:00 +15°C° 0,3 mm 2 m/S 728 mmHg 87%
    14:00 +15°C° 0,3 mm 2 m/S 728 mmHg 86%
    15:00 +15°C° 0,3 mm 2 m/S 728 mmHg 86%
    16:00 +15°C° 0,3 mm 1 m/S 729 mmHg 86%
    17:00 +15°C° 0,5 mm 2 m/S 729 mmHg 87%
    18:00 +15°C° 0,5 mm 2 m/S 729 mmHg 88%
    19:00 +14°C° 0,5 mm 2 m/S 729 mmHg 89%
    20:00 +14°C° 0,1 mm 2 m/S 729 mmHg 89%
    21:00 +13°C° 0,1 mm 2 m/S 730 mmHg 89%
    22:00 +12°C° 0,1 mm 1 m/S 730 mmHg 90%
    23:00 +12°C° 0 mm 1 m/S 730 mmHg 89%

    25 August, Samstag

    Zeit Temperatur Niederschläge Wind Luftdruck Luftfeuchtigkeit
    00:00 +11°C° 0 mm 1 m/S 730 mmHg 89%
    01:00 +11°C° 0 mm 1 m/S 731 mmHg 89%
    02:00 +10°C° 0 mm 1 m/S 731 mmHg 90%
    03:00 +10°C° 0 mm 1 m/S 731 mmHg 90%
    04:00 +10°C° 0 mm 1 m/S 731 mmHg 91%
    05:00 +10°C° 0 mm 1 m/S 731 mmHg 89%
    06:00 +10°C° 0 mm 1 m/S 732 mmHg 88%
    07:00 +11°C° 0 mm 1 m/S 732 mmHg 87%
    08:00 +12°C° 0 mm 1 m/S 732 mmHg 80%
    09:00 +14°C° 0 mm 2 m/S 732 mmHg 73%
    10:00 +14°C° 0 mm 3 m/S 733 mmHg 67%
    11:00 +16°C° 0,1 mm 3 m/S 732 mmHg 62%
    12:00 +17°C° 0,1 mm 3 m/S 732 mmHg 58%
    13:00 +17°C° 0,1 mm 3 m/S 732 mmHg 53%
    14:00 +17°C° 0,1 mm 3 m/S 732 mmHg 52%
    15:00 +17°C° 0,1 mm 2 m/S 732 mmHg 51%
    16:00 +17°C° 0,1 mm 2 m/S 732 mmHg 51%
    17:00 +16°C° 0 mm 2 m/S 732 mmHg 55%
    18:00 +15°C° 0 mm 1 m/S 732 mmHg 59%
    19:00 +14°C° 0 mm 1 m/S 732 mmHg 64%
    20:00 +13°C° 0 mm 1 m/S 732 mmHg 67%
    21:00 +12°C° 0 mm 1 m/S 732 mmHg 71%
    22:00 +10°C° 0 mm 0 m/S 732 mmHg 74%
    23:00 +10°C° 0 mm 0 m/S 732 mmHg 76%
    Mehr zeigen